| time (UTC) | temp F | wind direction | speed knots | gust knots | rain 1hr in | rain 24hr in | rain mn in | humidity % | barometer mb |
| 20260509220804 | 53 | 145 | 0.9 | 2.6 | 0.00 | 0.00 | 0.00 | 58 | 1001.5 |
| 20260509220305 | 53 | 12 | 1.7 | 7.8 | 0.00 | 0.00 | 0.00 | 58 | 1001.5 |
| 20260509210304 | 54 | 34 | 1.7 | 7.8 | 0.00 | 0.00 | 0.00 | 57 | 1001.3 |
| 20260509200804 | 52 | 356 | 2.6 | 7.8 | 0.00 | 0.00 | 0.00 | 61 | 1001.3 |
| 20260509190805 | 53 | 65 | 1.7 | 7.8 | 0.00 | 0.00 | 0.00 | 63 | 1000.6 |
| 20260509180304 | 50 | 281 | 3.5 | 7.0 | 0.00 | 0.00 | 0.00 | 69 | 1001.1 |
| 20260509160739 | 43 | 288 | 4.3 | 6.1 | 0.00 | 0.00 | 0.00 | 81 | 1001.1 |
| 20260509160239 | 43 | 27 | 2.6 | 7.0 | 0.00 | 0.00 | 0.00 | 81 | 1001.1 |
| 20260509150740 | 42 | 280 | 2.6 | 7.0 | 0.00 | 0.00 | 0.00 | 82 | 1001.1 |
| 20260509140740 | 41 | 114 | 2.6 | 7.0 | 0.00 | 0.00 | 0.00 | 84 | 1001.6 |
| 20260509130739 | 41 | 78 | 2.6 | 6.1 | 0.00 | 0.00 | 0.00 | 84 | 1001.8 |
| 20260509130240 | 41 | 289 | 2.6 | 7.8 | 0.00 | 0.00 | 0.00 | 84 | 1001.8 |
| 20260509120740 | 41 | 306 | 4.3 | 7.8 | 0.00 | 0.00 | 0.00 | 81 | 1001.9 |
| 20260509120240 | 41 | 294 | 5.2 | 7.8 | 0.00 | 0.00 | 0.00 | 81 | 1001.9 |
| 20260509110740 | 41 | 279 | 5.2 | 6.1 | 0.00 | 0.00 | 0.00 | 79 | 1002.5 |
| 20260509100740 | 41 | 274 | 5.2 | 7.8 | 0.00 | 0.00 | 0.00 | 80 | 1002.7 |
| 20260509100239 | 41 | 288 | 6.1 | 7.8 | 0.00 | 0.00 | 0.00 | 80 | 1002.7 |
| 20260509090739 | 41 | 284 | 5.2 | 7.0 | 0.00 | 0.00 | 0.00 | 81 | 1003.1 |
| 20260509090239 | 41 | 289 | 4.3 | 7.0 | 0.00 | 0.00 | 0.00 | 81 | 1003.0 |
| 20260509080739 | 42 | 136 | 4.3 | 7.0 | 0.00 | 0.00 | 0.00 | 81 | 1003.3 |
| 20260509080241 | 42 | 192 | 4.3 | 7.8 | 0.00 | 0.00 | 0.00 | 81 | 1003.3 |
| 20260509060809 | 43 | 267 | 4.3 | 7.8 | 0.00 | 0.00 | 0.00 | 79 | 1003.9 |
| 20260509060308 | 43 | 277 | 3.5 | 7.8 | 0.00 | 0.00 | 0.00 | 78 | 1003.8 |
| 20260509050808 | 44 | 140 | 2.6 | 6.1 | 0.00 | 0.00 | 0.00 | 76 | 1003.9 |
| 20260509050309 | 44 | 139 | 1.7 | 6.1 | 0.00 | 0.00 | 0.00 | 76 | 1003.9 |
| 20260509040808 | 45 | 261 | 2.6 | 6.1 | 0.00 | 0.00 | 0.00 | 73 | 1004.2 |
| 20260509040308 | 45 | 187 | 1.7 | 7.0 | 0.00 | 0.00 | 0.00 | 72 | 1004.3 |
| 20260509030808 | 47 | 320 | 1.7 | 5.2 | 0.00 | 0.00 | 0.00 | 67 | 1004.1 |
| 20260509030308 | 47 | 295 | 1.7 | 7.0 | 0.00 | 0.00 | 0.00 | 67 | 1004.1 |
| 20260509020808 | 49 | 305 | 4.3 | 6.1 | 0.00 | 0.00 | 0.00 | 60 | 1004.0 |
| 20260509020309 | 50 | 324 | 2.6 | 7.8 | 0.00 | 0.00 | 0.00 | 59 | 1004.0 |
| 20260509010808 | 52 | 88 | 1.7 | 2.6 | 0.00 | 0.00 | 0.00 | 54 | 1004.0 |
| 20260509010307 | 52 | 45 | 1.7 | 6.1 | 0.00 | 0.00 | 0.00 | 54 | 1003.9 |
| 20260509000310 | 53 | 40 | 1.7 | 5.2 | 0.00 | 0.00 | 0.00 | 51 | 1004.0 |
| 20260508230808 | 54 | 53 | 1.7 | 4.3 | 0.00 | 0.00 | 0.00 | 48 | 1004.3 |
| 20260508230307 | 54 | 92 | 1.7 | 6.1 | 0.00 | 0.00 | 0.00 | 48 | 1004.3 |